Temperature
15 15 15 16 13 11 13 14 15 16 17 18 19 18 17 16 17 17 16 16 16 16 16 16 16 16 16 16 16 16 16 16 16 16 16 15 16 16 15 15 15 15 15 15 15 15 15 15 14
14 15 15 15 11 12 13 13 15 16 17 19 18 17 16 16 16 16 16 16 16 16 16 16 16 16 16 16 16 16 16 16 16 15 15 15 15 15 15 15 15 15 15 15 15 15 15 14 14
14 14 15 11 11 12 14 15 15 16 18 18 17 17 16 16 16 16 16 16 16 16 15 15 15 15 15 15 15 16 15 15 15 15 15 15 15 15 15 15 15 15 15 15 15 14 14 14 14
14 14 13 11 12 13 14 15 15 16 17 17 16 15 15 15 16 16 16 16 15 15 15 15 15 15 15 15 15 15 15 15 15 15 15 15 15 15 15 15 15 15 15 15 14 14 14 14 14
13 13 11 11 12 13 13 15 15 15 15 16 16 14 14 15 15 16 16 16 15 15 15 15 15 15 15 15 15 15 15 15 15 15 15 15 15 15 15 15 14 14 14 14 14 14 14 14 14
13 11 10 11 12 13 13 15 15 14 14 15 15 14 13 14 15 15 15 15 15 15 15 15 15 15 15 15 15 15 15 15 15 15 15 15 14 14 14 14 14 14 14 14 14 14 14 13 13
11 9 10 11 12 13 13 14 14 13 13 14 15 13 13 13 14 14 14 15 14 14 14 14 14 14 14 14 14 14 14 14 14 14 14 14 14 14 14 14 14 14 14 14 13 13 13 13 13
12 9 10 10 12 12 13 14 14 13 13 14 14 12 12 13 13 13 14 14 14 14 14 14 14 14 14 14 14 14 14 14 14 14 14 14 14 14 14 14 13 13 14 13 13 13 13 13 13
11 8 9 10 11 11 12 12 13 13 13 12 12 12 12 12 12 13 13 13 13 13 13 13 13 13 13 13 13 13 14 14 14 14 14 14 13 13 13 13 13 13 13 13 13 13 13 13 12
10 8 9 10 11 11 11 11 11 11 11 10 11 11 12 12 12 12 13 12 13 13 13 13 13 13 13 13 13 13 13 13 13 13 13 13 13 13 13 13 13 13 13 13 13 12 12 12 12
9 8 9 10 11 11 10 10 11 10 9 9 9 10 11 11 11 12 12 12 12 12 12 12 13 13 13 13 13 13 13 13 13 13 13 13 13 13 12 12 13 13 12 12 12 12 12 12 12
8 8 9 10 10 10 10 10 9 9 9 9 9 10 10 10 10 10 11 11 11 12 12 12 12 12 12 12 13 12 13 13 13 13 13 13 13 13 12 12 12 12 12 12 12 12 12 12 11
7 8 8 9 9 9 9 8 8 8 8 8 9 9 9 9 9 10 10 11 11 11 11 11 12 12 12 12 12 12 12 12 13 12 12 13 12 12 12 12 12 12 12 12 12 12 11 11 11
7 7 7 8 8 8 8 7 7 7 7 8 8 8 8 8 9 9 9 10 10 11 11 11 11 11 11 12 12 12 12 12 12 12 12 12 12 12 12 12 12 12 11 11 11 11 11 11 11
7 6 6 7 7 7 7 6 6 7 7 7 7 7 7 7 8 8 8 9 10 10 10 10 10 11 11 11 11 12 12 12 12 12 11 11 12 12 12 12 11 11 11 11 11 11 11 11 10
6 5 5 6 6 7 7 5 5 6 6 6 6 6 6 6 7 7 8 8 9 9 10 10 10 10 10 11 11 11 11 11 11 11 11 11 11 11 11 11 11 11 11 11 11 11 10 10 10
4 4 4 5 6 6 5 4 5 6 5 5 5 5 5 6 6 7 7 7 8 9 9 9 9 10 10 10 10 10 11 11 11 11 11 11 11 11 11 11 11 10 10 10 10 10 10 10 10
4 3 4 4 5 5 4 4 4 5 5 4 4 4 5 5 5 6 6 7 7 8 8 9 9 9 9 9 10 10 10 10 10 10 10 10 10 10 10 10 10 10 10 10 10 10 10 10 9
4 4 3 4 5 4 3 3 3 4 4 3 3 4 4 4 5 5 6 6 7 7 8 8 8 9 9 9 9 9 9 9 10 10 10 10 10 10 10 10 10 10 10 10 10 9 9 9 9
4 3 3 4 4 4 3 3 3 3 3 3 3 3 3 4 4 5 5 5 6 6 7 7 7 8 8 8 8 9 9 9 9 9 9 9 10 10 9 9 10 9 9 9 9 9 9 9 9
3 3 3 3 3 3 3 2 2 2 3 3 3 3 3 3 3 4 4 5 5 6 6 6 7 7 7 8 8 8 8 8 8 9 9 9 9 9 9 9 9 9 9 9 9 9 9 9 8
3 3 3 3 2 2 3 1 1 1 1 2 2 2 2 3 3 3 3 4 4 5 5 6 6 6 7 7 7 7 8 8 8 8 8 8 8 8 8 8 8 8 8 8 8 8 8 8 8
2 3 3 3 2 1 1 1 1 1 1 1 1 1 2 2 2 3 3 3 4 4 5 5 5 5 6 6 6 7 7 7 7 7 7 8 8 8 8 8 8 8 8 8 8 8 8 8 8
2 2 2 1 1 1 1 1 0 -0 -0 -0 -0 0 1 1 2 2 3 3 3 4 4 4 5 5 5 5 6 6 6 6 6 7 7 7 7 7 7 7 7 7 7 7 8 8 7 8 8
1 1 1 1 0 1 1 1 -0 -1 -0 -0 -1 -0 0 1 1 1 2 2 3 3 3 4 4 4 4 4 5 5 5 5 6 6 6 6 6 6 7 7 7 7 7 7 7 7 7 7 7
1 1 0 1 0 0 0 -0 -1 -1 -0 -0 -0 -0 -0 0 0 1 1 2 2 2 3 3 3 3 4 4 4 4 5 5 5 5 5 5 6 6 6 6 6 6 6 6 7 7 7 7 7
1 -0 0 -0 -1 -1 -1 -2 -1 -1 -1 -1 -1 -1 -1 -1 -0 0 1 1 1 2 2 2 3 3 3 3 3 4 4 4 4 4 4 5 5 5 5 6 6 6 6 6 6 6 6 6 6
0 -0 -1 -1 -1 -1 -1 -2 -2 -2 -2 -2 -2 -2 -1 -1 -1 -0 0 0 1 1 1 2 2 2 2 2 3 3 3 3 4 4 4 4 4 4 5 5 5 5 5 5 5 5 5 5 6
-1 -1 -2 -2 -1 -2 -2 -2 -2 -2 -2 -3 -2 -2 -2 -2 -1 -1 -1 -0 0 1 1 1 1 1 2 2 2 2 2 3 3 3 3 3 4 4 4 4 4 4 5 4 4 4 5 5 5
-2 -2 -2 -2 -2 -3 -3 -2 -2 -3 -3 -2 -2 -2 -2 -2 -2 -1 -1 -1 -0 0 0 0 1 1 1 1 1 2 2 2 2 2 3 3 3 3 3 3 4 4 4 4 4 4 4 4 4
Wind_Speed
11 9 2 4 5 3 5 6 4 2 2 2 2 5 7 4 4 4 2 6 9 11 13 16 16 15 15 15 15 15 15 15 15 15 15 15 15 15 15 15 15 15 16 16 16 16 17 17 18
8 3 4 4 4 3 6 6 6 6 5 2 2 3 4 3 2 5 3 6 11 12 13 15 16 16 15 15 15 15 15 15 15 15 15 15 15 15 14 15 15 15 16 16 16 16 16 16 17
5 1 4 4 4 8 6 5 8 6 3 2 1 2 3 3 2 3 4 9 11 11 12 14 16 16 15 15 15 15 15 14 15 15 15 14 14 14 14 15 15 15 16 15 15 15 15 16 16
2 3 3 2 7 8 6 4 4 2 1 1 3 3 2 2 1 3 7 10 11 9 11 14 16 16 15 15 15 15 15 15 15 14 14 14 14 14 14 15 15 15 15 15 14 14 15 15 15
3 3 2 4 9 6 5 4 1 1 0 1 3 4 2 4 3 7 9 10 11 9 10 14 15 15 15 15 15 15 15 15 15 14 14 14 14 14 14 15 15 15 15 15 14 14 14 14 15
2 2 4 8 9 6 4 2 1 1 1 1 2 4 2 3 5 7 8 8 9 9 9 11 14 14 15 15 15 15 15 14 14 14 14 14 14 13 13 14 14 15 14 14 14 13 13 14 15
3 3 6 7 6 5 3 1 2 2 1 2 1 4 1 2 2 5 7 8 8 8 8 8 10 12 13 14 14 14 14 14 14 14 14 14 14 13 13 13 14 14 14 14 14 13 13 13 14
3 3 4 5 5 4 2 0 0 1 1 1 2 5 2 2 1 5 7 8 7 6 6 6 7 9 9 11 13 14 14 14 14 15 15 14 13 13 13 13 13 13 14 14 13 13 12 12 13
3 2 6 6 5 2 2 1 3 2 3 3 3 1 2 4 5 7 7 6 6 5 4 5 6 7 8 9 12 13 14 14 15 14 14 13 11 11 11 12 13 13 13 13 12 12 12 12 13
2 5 8 3 2 1 1 1 2 2 3 4 5 6 5 6 7 8 7 6 6 5 3 3 4 5 7 7 9 10 10 12 12 12 12 11 10 10 10 12 12 12 12 11 11 11 11 11 11
2 5 4 2 1 0 0 2 3 2 1 0 1 2 4 5 5 6 5 4 5 5 4 3 3 5 6 5 6 6 7 9 10 11 11 11 10 9 9 9 9 9 10 9 9 9 9 9 9
2 3 3 3 2 1 1 1 2 1 1 1 3 4 5 5 4 3 4 3 3 3 3 3 3 4 4 5 5 6 6 7 7 9 10 9 7 7 7 7 7 7 8 8 8 8 8 9 9
3 3 3 3 2 0 1 1 1 1 1 3 5 5 5 4 3 3 3 4 4 3 2 2 2 3 4 5 5 5 5 6 7 8 9 9 7 5 6 6 6 6 8 8 7 7 8 8 8
3 2 4 4 3 2 1 1 0 2 1 4 5 5 3 3 3 4 4 4 3 3 2 2 2 2 3 4 4 4 5 6 7 7 8 9 8 7 6 5 5 6 7 8 8 7 7 6 7
2 2 4 4 3 3 2 2 3 3 3 4 4 4 3 3 4 3 2 2 2 2 2 2 2 3 3 3 4 5 5 6 5 6 8 9 9 8 7 5 4 6 8 8 8 7 7 5 5
1 1 3 5 2 2 4 5 3 1 4 3 2 3 3 3 3 3 2 2 2 2 2 2 3 3 3 2 3 4 5 6 5 6 7 8 9 9 7 5 4 6 7 7 5 4 4 4 4
2 2 4 5 2 1 3 4 2 1 4 3 2 2 3 3 3 3 3 3 2 2 3 3 3 3 3 3 3 4 5 5 5 6 6 7 8 9 7 5 4 6 6 5 4 3 4 5 4
3 3 4 5 3 1 3 4 1 0 3 2 1 1 3 3 1 1 3 3 3 3 3 3 3 4 4 3 3 3 4 3 4 5 5 6 6 7 7 5 5 6 4 3 4 4 4 4 5
3 3 5 5 3 1 3 3 2 1 2 1 0 1 2 2 1 1 2 3 4 4 3 3 3 3 3 2 2 2 2 2 2 3 5 6 6 7 6 4 4 5 3 3 4 4 5 3 4
2 3 3 3 2 1 2 2 1 1 1 1 1 1 1 1 2 2 3 3 3 3 3 3 3 2 2 1 1 1 1 1 1 2 4 5 5 5 5 4 4 4 3 4 4 4 3 2 2
4 5 4 3 4 2 0 3 1 2 3 3 3 2 1 2 2 1 1 2 2 3 2 2 2 2 3 3 2 3 2 2 2 2 2 3 4 4 4 4 4 4 4 4 4 4 4 3 1
5 4 4 4 1 3 2 3 4 2 2 4 4 3 2 1 1 2 2 2 2 2 2 2 2 2 3 3 3 4 3 2 0 1 1 2 3 3 3 4 4 3 3 3 3 2 2 4 3
5 4 4 4 4 2 1 2 4 0 2 3 3 3 2 2 1 2 1 1 1 2 2 3 2 2 2 3 3 3 2 1 1 2 2 2 2 2 3 3 3 3 2 2 3 2 2 2 3
4 1 1 1 1 3 4 4 3 1 3 2 2 3 3 2 2 2 2 2 2 3 3 3 3 3 3 3 3 3 3 2 2 2 1 1 1 1 2 2 2 2 2 2 2 2 2 2 2
4 3 2 2 1 4 2 2 3 2 2 2 1 2 2 2 2 2 2 2 2 2 2 2 3 3 3 2 2 3 3 2 2 1 1 1 1 1 0 1 1 1 2 2 2 2 2 2 2
2 2 3 2 3 3 1 3 3 2 1 1 1 1 2 3 2 2 2 2 2 2 2 2 3 3 3 2 1 2 2 1 1 1 0 0 0 1 0 1 1 1 2 2 2 1 2 2 2
1 0 2 2 1 2 3 2 3 2 3 3 3 3 3 3 3 3 3 3 3 3 2 2 2 2 2 2 2 2 2 1 1 1 1 0 1 1 1 1 0 1 1 2 2 2 2 2 2
1 1 2 2 1 2 3 2 2 3 3 3 4 2 2 3 4 4 3 3 3 2 2 2 2 2 2 2 2 2 1 1 1 1 1 1 1 2 1 1 1 1 1 1 2 2 2 2 2
3 2 1 1 2 3 2 3 1 2 1 1 1 2 1 2 2 3 3 3 3 3 3 3 3 3 2 2 2 2 2 1 1 1 1 1 1 1 1 1 1 1 1 2 2 2 2 3 2
1 1 1 1 2 2 2 3 3 1 1 1 2 3 3 2 2 3 3 3 4 4 4 3 3 2 2 1 1 1 1 1 1 0 1 0 0 1 1 1 1 1 1 1 2 3 3 3 3
Wind_Direction
328 335 43 59 64 68 233 240 225 219 217 220 151 119 121 123 135 148 141 132 131 145 154 151 147 142 139 135 130 128 127 124 122 122 122 119 115 114 113 112 110 109 106 103 102 100 99 98 97
328 346 55 70 119 190 248 234 221 226 209 184 91 97 96 95 81 106 111 135 138 143 148 149 146 142 139 136 134 130 128 126 124 124 123 122 119 117 116 115 114 111 108 106 104 101 100 99 98
329 33 92 103 165 197 215 222 211 226 245 191 110 61 115 127 115 132 152 139 135 138 143 148 145 143 140 138 136 134 132 129 126 124 122 123 123 121 119 117 115 113 110 108 105 103 102 101 98
44 50 69 135 218 222 214 217 199 210 340 42 124 82 75 39 137 143 135 132 131 132 139 145 145 143 141 140 139 137 135 132 128 125 123 124 125 125 121 118 118 116 114 111 109 106 105 102 99
65 94 128 229 236 241 243 257 237 186 237 9 104 115 71 352 57 113 123 127 131 133 134 142 145 145 143 142 142 139 137 133 131 128 127 127 124 123 123 121 121 121 119 116 113 110 107 103 101
76 101 171 223 235 244 250 275 243 287 272 20 83 120 122 12 75 113 116 121 126 129 128 139 142 144 146 145 144 140 138 135 133 131 128 127 126 124 125 126 126 126 125 122 119 114 108 105 103
136 148 203 219 229 242 252 250 179 221 250 300 111 117 125 7 54 108 108 107 110 113 114 119 132 140 144 144 142 141 138 135 133 131 128 125 125 126 125 127 130 131 129 126 122 117 112 110 107
142 139 221 234 226 237 284 263 179 135 219 334 85 129 169 251 95 99 99 98 101 100 105 107 117 123 128 138 141 138 137 135 133 130 126 123 124 127 128 126 128 132 132 130 126 120 115 113 110
100 150 221 228 220 243 333 356 340 5 72 39 39 92 152 137 111 98 95 88 96 99 95 102 108 115 119 128 136 135 136 136 133 130 128 125 122 123 128 129 129 131 133 133 130 123 117 114 111
105 199 224 235 207 206 337 335 317 27 33 22 20 21 56 98 110 110 118 128 130 128 118 106 116 117 120 125 127 131 136 136 133 133 129 128 126 126 129 132 132 131 133 135 133 125 120 116 110
165 208 235 262 276 215 341 331 345 126 32 352 72 46 71 82 90 110 118 131 148 150 136 122 121 123 120 119 124 125 129 133 132 134 132 131 126 125 126 127 129 130 128 128 128 117 114 114 112
208 250 259 273 274 272 247 296 8 49 214 126 133 130 109 100 94 97 105 98 97 123 128 121 112 122 123 126 128 124 125 129 131 136 135 132 128 126 130 130 133 130 128 124 124 117 115 114 115
242 258 283 303 331 349 93 109 132 314 15 75 89 91 99 106 91 68 73 91 87 85 85 94 105 122 128 123 127 125 126 131 132 135 140 138 134 135 136 137 138 137 136 133 128 122 119 118 116
232 264 283 287 293 293 137 300 186 262 102 83 87 97 100 100 83 58 51 60 74 77 84 81 89 102 125 125 128 131 129 130 130 132 137 140 141 141 141 141 141 143 145 142 135 130 125 121 119
280 302 309 289 257 244 148 324 253 228 111 100 98 101 93 77 70 67 59 63 82 82 81 92 89 67 96 121 129 131 132 130 128 132 136 135 137 140 139 138 142 148 146 139 130 123 120 116 115
18 9 284 287 271 242 153 239 261 171 119 119 126 112 102 80 64 49 36 37 58 72 76 82 84 71 66 82 113 124 129 127 127 131 133 134 137 140 135 131 137 143 139 136 128 124 122 120 117
46 256 255 288 298 217 168 228 262 149 123 143 158 128 109 83 46 32 28 29 52 68 80 73 75 76 67 63 89 105 116 116 125 126 125 132 136 139 136 134 134 136 126 128 132 123 124 125 122
240 244 246 254 277 125 183 222 270 357 115 150 153 119 113 106 78 34 23 23 46 69 75 77 69 66 64 64 69 83 84 87 101 117 124 129 134 133 130 129 131 131 119 115 121 123 114 122 126
222 216 248 257 262 204 208 220 261 323 67 93 109 113 141 152 108 65 38 37 46 56 70 74 69 61 71 82 100 111 103 93 86 92 113 121 126 130 127 125 130 131 132 136 131 126 123 120 122
239 242 256 294 323 242 217 239 253 344 28 128 132 155 161 110 74 61 43 42 48 52 66 78 79 68 67 62 101 149 141 120 106 91 92 110 114 124 133 132 134 131 129 132 129 127 127 137 139
269 223 228 256 318 307 273 288 291 328 12 29 45 53 90 124 131 109 79 51 54 51 54 78 71 69 60 55 80 81 78 69 63 73 78 86 111 115 128 137 136 135 139 154 157 147 144 159 168
266 234 231 236 255 275 186 254 264 251 348 2 7 14 21 64 100 107 80 54 58 41 42 58 65 65 70 82 100 114 122 124 102 80 95 93 110 114 119 131 134 137 137 152 167 156 147 157 170
256 257 240 229 203 255 260 202 281 336 297 315 336 359 6 23 81 107 94 85 58 43 47 45 48 64 61 79 98 106 100 92 81 77 85 84 82 102 110 127 129 133 140 143 147 152 155 166 175
305 350 44 67 126 250 235 192 273 263 255 272 317 353 12 24 41 69 59 61 57 46 47 50 47 48 57 72 89 92 94 84 85 73 84 66 60 77 92 110 130 142 139 149 151 150 165 182 178
25 79 40 357 332 253 218 183 258 275 258 197 202 333 353 27 42 49 43 48 58 47 41 47 51 43 51 55 82 93 91 100 118 104 106 96 68 18 202 145 154 159 168 169 151 142 165 179 181
300 126 153 215 247 279 299 221 264 299 350 61 77 36 27 29 31 33 37 49 45 40 41 51 53 47 45 44 61 89 89 86 67 60 50 261 238 267 248 168 157 165 174 172 158 154 177 167 192
8 149 186 158 269 289 280 307 304 347 23 37 40 36 21 16 11 13 20 34 37 38 35 49 60 49 47 33 32 70 78 70 35 10 20 3 358 345 22 54 139 165 176 173 160 185 195 181 199
64 125 76 117 188 267 293 260 270 313 338 4 16 7 343 356 6 8 18 21 25 30 30 37 57 59 47 46 31 35 46 42 47 50 22 350 0 6 8 19 1 190 178 174 171 191 195 194 211
17 34 53 124 143 173 262 276 288 249 254 276 303 328 313 327 355 -0 4 13 26 30 35 36 35 39 33 31 49 35 31 30 38 25 336 345 3 359 327 330 314 265 212 189 188 206 202 204 215
103 72 104 157 262 187 195 272 353 39 26 28 333 333 341 345 6 3 360 18 27 24 23 20 13 15 5 3 46 39 14 12 22 348 310 317 303 320 300 276 261 264 247 213 202 211 215 210 216
Height
1516 1517 1519 1521 1524 1534 1532 1523 1516 1513 1512 1510 1510 1510 1512 1516 1519 1525 1522 1521 1523 1525 1527 1530 1532 1534 1536 1538 1540 1541 1543 1544 1546 1547 1548 1550 1550 1551 1552 1553 1554 1555 1556 1556 1557 1557 1558 1558 1558
1515 1517 1519 1520 1528 1536 1529 1518 1514 1510 1508 1509 1510 1510 1512 1515 1516 1518 1519 1521 1523 1525 1527 1530 1532 1534 1536 1538 1540 1542 1543 1545 1546 1547 1549 1550 1551 1552 1553 1554 1555 1556 1557 1557 1558 1559 1559 1560 1560
1515 1516 1518 1521 1527 1527 1520 1511 1508 1506 1507 1508 1510 1511 1513 1515 1516 1517 1519 1521 1523 1525 1528 1530 1532 1534 1536 1538 1540 1542 1543 1545 1547 1548 1549 1551 1552 1553 1554 1555 1556 1557 1558 1558 1559 1560 1560 1561 1562
1514 1516 1518 1523 1521 1515 1510 1507 1506 1506 1507 1507 1509 1512 1514 1517 1517 1518 1519 1521 1523 1525 1528 1530 1532 1534 1536 1538 1540 1542 1544 1545 1547 1548 1550 1551 1552 1553 1555 1556 1557 1558 1559 1560 1560 1561 1562 1562 1563
1513 1514 1519 1522 1516 1510 1507 1506 1506 1506 1507 1508 1509 1512 1514 1516 1517 1517 1519 1520 1522 1525 1528 1530 1532 1534 1536 1538 1540 1541 1543 1545 1547 1548 1550 1551 1552 1554 1555 1556 1557 1558 1559 1560 1561 1562 1563 1563 1564
1512 1513 1521 1519 1512 1508 1506 1506 1506 1507 1508 1508 1510 1512 1515 1516 1516 1517 1519 1521 1523 1524 1527 1530 1532 1534 1536 1538 1539 1541 1543 1545 1546 1548 1549 1551 1552 1554 1555 1556 1557 1559 1560 1561 1562 1563 1564 1564 1565
1511 1514 1515 1512 1510 1508 1507 1506 1507 1508 1508 1509 1510 1512 1514 1516 1517 1518 1519 1521 1523 1524 1527 1529 1531 1534 1535 1537 1539 1541 1542 1544 1546 1547 1549 1551 1552 1554 1555 1556 1558 1559 1560 1561 1562 1564 1564 1565 1566
1509 1513 1512 1511 1509 1508 1507 1507 1508 1508 1508 1510 1510 1512 1514 1515 1516 1518 1519 1521 1522 1525 1526 1528 1531 1532 1534 1536 1538 1540 1542 1544 1545 1547 1549 1550 1552 1553 1555 1556 1557 1559 1560 1561 1563 1564 1565 1566 1567
1508 1514 1513 1509 1508 1508 1507 1507 1508 1509 1509 1510 1511 1512 1513 1515 1515 1517 1518 1520 1522 1524 1526 1528 1530 1532 1533 1535 1537 1539 1541 1543 1545 1546 1548 1550 1551 1553 1554 1556 1557 1559 1560 1561 1562 1564 1565 1566 1567
1507 1512 1508 1506 1507 1508 1508 1508 1509 1509 1509 1510 1511 1511 1512 1513 1514 1514 1516 1518 1520 1522 1524 1527 1528 1530 1532 1534 1536 1538 1540 1542 1544 1545 1547 1549 1550 1552 1554 1555 1557 1558 1560 1561 1562 1564 1565 1566 1567
1506 1508 1506 1506 1506 1507 1507 1508 1509 1509 1511 1512 1511 1511 1511 1511 1513 1514 1515 1517 1519 1521 1523 1525 1527 1529 1531 1533 1535 1537 1539 1540 1542 1544 1546 1548 1549 1551 1553 1554 1556 1558 1559 1561 1562 1563 1564 1566 1567
1507 1506 1506 1506 1506 1506 1507 1508 1509 1510 1511 1512 1511 1511 1510 1510 1512 1513 1513 1515 1518 1520 1522 1524 1526 1528 1530 1532 1534 1535 1537 1539 1541 1543 1545 1546 1548 1550 1551 1553 1555 1557 1558 1560 1561 1563 1564 1565 1566
1506 1506 1506 1506 1506 1506 1506 1508 1509 1511 1511 1511 1510 1510 1510 1510 1511 1513 1514 1514 1516 1519 1520 1522 1525 1526 1529 1531 1532 1534 1536 1538 1539 1541 1543 1545 1547 1548 1550 1552 1554 1556 1557 1559 1560 1562 1563 1565 1566
1505 1505 1505 1505 1505 1505 1506 1508 1509 1510 1510 1510 1509 1509 1509 1510 1510 1511 1513 1513 1515 1517 1519 1521 1523 1525 1527 1529 1531 1533 1535 1536 1538 1540 1542 1544 1546 1547 1549 1551 1552 1554 1556 1558 1560 1561 1562 1564 1565
1505 1506 1506 1504 1504 1505 1505 1509 1509 1509 1509 1509 1508 1508 1509 1510 1510 1511 1512 1513 1514 1516 1518 1520 1522 1523 1525 1527 1529 1531 1533 1535 1536 1538 1540 1542 1544 1546 1547 1549 1551 1553 1555 1557 1558 1560 1561 1563 1564
1506 1508 1510 1505 1504 1504 1507 1511 1508 1508 1508 1508 1508 1508 1508 1509 1510 1511 1512 1513 1514 1515 1516 1518 1520 1522 1523 1526 1528 1530 1532 1534 1535 1537 1539 1541 1543 1544 1546 1548 1549 1551 1553 1555 1556 1558 1559 1561 1562
1511 1513 1511 1507 1504 1504 1507 1510 1508 1507 1507 1507 1507 1508 1508 1508 1509 1510 1511 1512 1513 1514 1515 1517 1518 1520 1522 1524 1526 1528 1530 1532 1534 1535 1537 1539 1541 1543 1544 1546 1548 1550 1551 1553 1554 1556 1557 1559 1560
1513 1513 1511 1509 1505 1505 1508 1509 1508 1507 1506 1506 1507 1507 1507 1507 1508 1509 1510 1511 1511 1513 1514 1516 1517 1519 1520 1522 1524 1526 1528 1530 1532 1533 1535 1537 1539 1541 1542 1544 1546 1548 1549 1551 1552 1554 1556 1557 1559
1509 1511 1511 1508 1505 1507 1508 1509 1509 1507 1506 1506 1506 1506 1506 1507 1508 1509 1509 1509 1510 1511 1512 1514 1515 1517 1518 1520 1521 1523 1525 1527 1529 1532 1533 1535 1537 1539 1540 1542 1544 1545 1547 1549 1550 1552 1553 1555 1557
1509 1510 1511 1508 1505 1507 1509 1509 1508 1507 1507 1506 1505 1505 1505 1506 1506 1507 1507 1508 1508 1510 1511 1513 1514 1515 1517 1518 1520 1522 1523 1525 1528 1530 1532 1533 1534 1536 1538 1540 1542 1543 1545 1547 1548 1550 1551 1553 1555
1507 1509 1509 1509 1507 1506 1508 1510 1509 1508 1508 1507 1506 1506 1505 1505 1505 1506 1506 1507 1507 1508 1510 1511 1512 1514 1515 1517 1519 1521 1522 1524 1525 1527 1529 1531 1533 1534 1536 1538 1540 1541 1543 1544 1546 1548 1549 1550 1552
1508 1505 1505 1506 1510 1513 1510 1516 1511 1509 1508 1506 1506 1505 1505 1505 1505 1505 1505 1506 1507 1508 1509 1510 1511 1512 1513 1515 1516 1518 1519 1520 1522 1524 1527 1529 1531 1532 1534 1536 1537 1539 1541 1542 1544 1545 1547 1549 1550
1505 1503 1503 1504 1509 1513 1512 1516 1514 1509 1509 1508 1507 1506 1505 1504 1504 1504 1505 1506 1506 1507 1508 1509 1511 1511 1512 1513 1514 1516 1518 1519 1521 1523 1525 1526 1528 1530 1531 1533 1535 1536 1538 1539 1541 1543 1544 1546 1547
1504 1503 1503 1506 1510 1514 1512 1515 1515 1513 1511 1509 1507 1506 1505 1504 1503 1504 1504 1505 1505 1506 1507 1509 1510 1510 1511 1512 1513 1514 1516 1517 1519 1520 1522 1524 1525 1527 1528 1530 1532 1533 1535 1536 1538 1540 1541 1543 1545
1506 1509 1514 1516 1519 1514 1509 1512 1515 1511 1509 1508 1507 1506 1505 1504 1503 1503 1503 1503 1504 1505 1506 1507 1508 1509 1510 1511 1511 1512 1513 1515 1517 1518 1520 1521 1522 1524 1525 1527 1529 1530 1531 1533 1535 1537 1538 1540 1541
1510 1512 1518 1519 1519 1516 1512 1514 1516 1510 1508 1508 1507 1507 1506 1505 1504 1503 1503 1503 1503 1504 1505 1506 1506 1507 1508 1509 1509 1510 1512 1514 1515 1516 1518 1519 1520 1522 1523 1524 1526 1527 1529 1530 1532 1533 1535 1536 1538
1512 1514 1514 1519 1520 1523 1520 1520 1514 1509 1508 1507 1507 1506 1505 1505 1504 1503 1503 1503 1504 1504 1504 1505 1505 1506 1507 1508 1508 1508 1510 1512 1513 1514 1516 1517 1518 1520 1521 1522 1523 1524 1526 1527 1528 1530 1531 1532 1534
1513 1514 1518 1520 1520 1522 1520 1520 1517 1512 1510 1508 1507 1506 1506 1505 1503 1503 1503 1503 1503 1503 1504 1504 1504 1505 1505 1506 1506 1507 1508 1510 1511 1512 1513 1515 1516 1517 1518 1518 1520 1521 1522 1524 1525 1526 1527 1529 1530
1518 1518 1519 1520 1520 1523 1524 1522 1514 1512 1510 1510 1509 1507 1506 1505 1504 1503 1503 1503 1502 1503 1502 1503 1503 1503 1504 1504 1505 1505 1506 1508 1509 1510 1511 1512 1513 1514 1515 1516 1517 1518 1519 1520 1521 1522 1524 1525 1526
1520 1521 1522 1523 1524 1525 1526 1525 1514 1512 1511 1510 1509 1508 1506 1505 1504 1504 1503 1502 1501 1501 1501 1501 1501 1502 1502 1502 1503 1503 1504 1505 1506 1507 1508 1509 1510 1511 1512 1513 1514 1515 1515 1516 1517 1518 1520 1521 1522